[[{"header":{"parameterUnit":"m.s-1","parameterCategory":1,"la1":30.2991,"la2":30.254,"lo1":-89.0895,"lo2":-89.0444,"dy":0.0017,"dx":0.0017,"nx":28,"ny":28,"refTime":"2025-11-06T09:00:00:Z","depth":0,"parameterNumber":2,"parameterNumberName":"U-component_of_WINDS"},"data":[0,0,0,0,0,0,0,0,0,0,0,0,0,0,0,0,0,0,0,0,0,0,0,0,0,0,0,0,0,0,0,0,0,0,0,0,0,0,0,0,0,0,0,0,0,0,0,0,0,0,0,0,0,0,0,0,0,0,-0.7901,-0.7902,0,-0.8012,-0.8014,-0.8015,-0.8078,-0.8078,-0.8078,-0.8078,-0.8188,-0.8191,-0.8194,0,0,0,0,0,0,0,0,0,0,0,0,0,-0.7737,-0.774,-0.79,-0.7902,-0.7903,-0.8012,-0.8014,-0.8015,-0.8078,-0.8078,-0.8078,-0.8079,-0.8188,-0.8191,-0.8194,0,0,0,0,0,0,0,0,0,0,0,0,0,-0.7824,-0.7741,-0.79,-0.7948,-0.7953,-0.8012,-0.8014,-0.8016,-0.8078,-0.8078,-0.8078,-0.8079,-0.8186,-0.819,-0.8194,-0.8213,0,0,-0.8207,-0.8209,0,0,0,0,0,0,0,0,-0.7819,-0.783,-0.7939,-0.7945,-0.7951,-0.8032,-0.7996,-0.8082,-0.8078,-0.803,-0.8078,-0.8079,-0.8136,-0.8144,-0.8164,-0.8218,-0.8223,-0.8207,-0.821,-0.8212,-0.8213,0,0,0,0,0,0,0,-0.7813,-0.7826,-0.7945,-0.7941,-0.7948,-0.7962,-0.7975,-0.8013,-0.808,-0.8034,-0.8039,-0.8052,-0.8139,-0.816,-0.8167,-0.8225,-0.8207,-0.8211,-0.8213,-0.8215,-0.8298,-0.8298,0,0,0,0,0,0,-0.78,-0.782,-0.7941,-0.7948,-0.7885,-0.7965,-0.7979,-0.8005,-0.8079,-0.8091,-0.8051,-0.8054,-0.8153,-0.8162,-0.8171,-0.8197,-0.8211,-0.8215,-0.8218,-0.8299,-0.8298,-0.8298,0,0,0,0,0,0,-0.7796,-0.781,-0.7937,-0.7886,-0.7903,-0.7967,-0.7996,-0.8007,-0.8029,-0.8092,-0.8104,-0.8061,-0.8153,-0.8165,-0.8202,-0.8202,-0.8217,-0.8221,-0.8299,-0.8299,-0.8298,-0.825,0,0,0,0,0,0,-0.7791,-0.7809,-0.7817,-0.7885,-0.7905,-0.7967,-0.7996,-0.8009,-0.8036,-0.8041,-0.8105,-0.8115,-0.8155,-0.8196,-0.8206,-0.8208,-0.8224,-0.8299,-0.8299,-0.8298,-0.8252,-0.8248,-0.8244,0,0,0,0,0,-0.7785,-0.7799,-0.7818,-0.7832,-0.7918,-0.7967,-0.7978,-0.8024,-0.8036,-0.8044,-0.8085,-0.8113,-0.82,-0.8199,-0.8211,-0.8214,-0.8299,-0.8299,-0.8298,-0.8253,-0.8248,-0.8244,0,0,0,0,0,0,-0.7728,-0.7808,-0.783,-0.7866,-0.7909,-0.7977,-0.799,-0.8018,-0.8058,-0.806,-0.8115,-0.8129,-0.816,-0.8191,-0.8188,-0.8235,-0.8253,-0.8255,-0.8214,-0.821,-0.8207,-0.8198,-0.8227,0,0,0,0,0,-0.7719,-0.7754,-0.7822,-0.7847,-0.7868,-0.7925,-0.7948,-0.798,-0.8026,-0.8044,-0.8088,-0.8131,-0.8168,-0.8191,-0.8228,-0.8256,-0.827,-0.8264,-0.8261,-0.8257,-0.8258,-0.8274,-0.8272,-0.8296,-0.8296,-0.8296,0,0,-0.7702,-0.775,-0.7768,-0.7836,-0.7874,-0.7907,-0.794,-0.7973,-0.7998,-0.8049,-0.8087,-0.812,-0.8171,-0.8203,-0.822,-0.823,-0.8255,-0.8257,-0.8254,-0.8256,-0.8273,-0.8271,-0.8269,-0.8296,-0.8296,-0.8296,0,0,-0.7687,-0.7728,-0.7753,-0.7789,-0.7846,-0.7884,-0.7889,-0.7954,-0.7978,-0.8017,-0.8056,-0.8085,-0.8148,-0.8183,-0.8208,-0.8206,-0.8233,-0.8217,-0.8197,-0.8213,-0.8211,-0.8209,-0.8207,-0.8206,-0.8217,-0.8217,-0.8217,0,-0.7658,-0.7711,-0.7761,-0.7793,-0.7821,-0.787,-0.7895,-0.7928,-0.7993,-0.801,-0.8021,-0.8101,-0.8139,-0.8179,-0.8179,-0.8198,-0.8206,-0.8209,-0.8207,-0.8206,-0.8206,-0.8204,-0.8204,-0.8215,-0.8215,-0.8215,-0.8216,0,-0.7672,-0.7708,-0.7721,-0.7784,-0.7813,-0.7841,-0.7894,-0.7918,-0.7947,-0.7983,-0.8022,-0.8069,-0.8117,-0.8129,-0.8157,-0.8173,-0.8178,-0.8197,-0.8215,-0.82,-0.82,-0.82,-0.8211,-0.8212,-0.8213,-0.8214,0,0,-0.7624,-0.7714,-0.7718,-0.7747,-0.7812,-0.784,-0.787,-0.7918,-0.7936,-0.7979,-0.8004,-0.8056,-0.8075,-0.8104,-0.8137,-0.815,-0.8144,-0.8168,-0.817,-0.8161,-0.8163,-0.8147,-0.8146,-0.8162,-0.8163,-0.8163,-0.8158,0,-0.7618,-0.7675,-0.7721,-0.7759,-0.7792,-0.7839,-0.7865,-0.7906,-0.7941,-0.7973,-0.8011,-0.8046,-0.8068,-0.8086,-0.8102,-0.8141,-0.8145,-0.8142,-0.8185,-0.8186,-0.817,-0.8146,-0.813,-0.8124,-0.8159,-0.8159,-0.8159,0,-0.7618,-0.7661,-0.7703,-0.7765,-0.778,-0.7802,-0.785,-0.788,-0.7928,-0.7952,-0.7985,-0.8019,-0.805,-0.8066,-0.8109,-0.8107,-0.8127,-0.8149,-0.815,-0.8155,-0.8171,-0.8149,-0.8123,-0.8121,-0.8159,-0.8159,-0.8159,0,-0.7578,-0.7645,-0.7679,-0.7702,-0.7775,-0.779,-0.782,-0.7869,-0.7895,-0.7935,-0.7952,-0.7996,-0.8019,-0.8051,-0.8095,-0.8103,-0.8134,-0.8153,-0.8153,-0.8152,-0.8157,-0.8156,-0.8132,-0.8171,-0.8171,-0.8171,-0.8171,0,-0.7566,-0.7589,-0.7662,-0.7682,-0.771,-0.7762,-0.7788,-0.7822,-0.7865,-0.7892,-0.7935,-0.7959,-0.8017,-0.8047,-0.8082,-0.8112,-0.8123,-0.8142,-0.815,-0.8138,-0.8135,-0.8151,-0.8152,-0.8171,-0.8171,-0.8171,-0.8171,0,-0.7525,-0.7574,-0.7614,-0.768,-0.7697,-0.7714,-0.777,-0.7791,-0.7828,-0.7862,-0.7873,-0.793,-0.7969,-0.8016,-0.807,-0.8093,-0.8119,-0.8133,-0.8103,-0.8108,-0.8105,-0.8104,-0.809,-0.809,-0.8129,-0.8129,-0.8128,0,-0.7513,-0.7533,-0.7601,-0.7623,-0.7653,-0.7687,-0.7714,-0.7766,-0.7791,-0.7847,-0.7861,-0.7903,-0.7939,-0.7998,-0.8044,-0.8084,-0.8099,-0.8091,-0.8105,-0.8091,-0.8098,-0.8095,-0.8097,-0.8087,-0.8086,-0.8086,-0.8085,0,-0.7488,-0.7511,-0.7549,-0.7594,-0.7625,-0.7663,-0.7703,-0.7718,-0.7777,-0.7804,-0.7844,-0.7872,-0.7927,-0.7968,-0.8014,-0.8045,-0.8074,-0.8081,-0.8083,-0.8069,-0.805,-0.8059,-0.8092,-0.8081,-0.8081,-0.8081,-0.8082,-0.8082,-0.7461,-0.748,-0.7531,-0.757,-0.7606,-0.7642,-0.7665,-0.7705,-0.774,-0.779,-0.7818,-0.7857,-0.7904,-0.797,-0.7999,-0.8029,-0.804,-0.8043,-0.8044,-0.8043,-0.8039,-0.8047,-0.8038,-0.8038,-0.8038,-0.8038,-0.8038,0,-0.7436,-0.7471,-0.7507,-0.7562,-0.7593,-0.762,-0.7665,-0.7689,-0.7723,-0.7765,-0.78,-0.7846,-0.7885,-0.7934,-0.7976,-0.7991,-0.8006,-0.8,-0.7999,-0.8005,-0.8027,-0.8021,-0.7988,-0.7988,-0.7988,-0.7988,-0.7988,-0.7988,-0.7427,-0.746,-0.749,-0.7541,-0.7576,-0.7615,-0.7639,-0.7672,-0.7705,-0.7755,-0.7788,-0.782,-0.7865,-0.791,-0.7947,-0.7961,-0.7973,-0.7964,-0.7981,-0.8,-0.8004,-0.8008,-0.8003,-0.7966,-0.7966,-0.7957,-0.7957,-0.7956]},{"header":{"parameterUnit":"m.s-1","parameterCategory":1,"la1":30.2991,"la2":30.254,"lo1":-89.0895,"lo2":-89.0444,"dy":0.0017,"dx":0.0017,"nx":28,"ny":28,"refTime":"2025-11-06T09:00:00:Z","depth":0,"parameterNumber":3,"parameterNumberName":"V-component_of_WINDS"},"data":[0,0,0,0,0,0,0,0,0,0,0,0,0,0,0,0,0,0,0,0,0,0,0,0,0,0,0,0,0,0,0,0,0,0,0,0,0,0,0,0,0,0,0,0,0,0,0,0,0,0,0,0,0,0,0,0,0,0,2.5204,2.5205,0,2.5225,2.5226,2.5226,2.5242,2.5242,2.5242,2.5242,2.5265,2.5266,2.5266,0,0,0,0,0,0,0,0,0,0,0,0,0,2.5182,2.5182,2.5204,2.5205,2.5205,2.5225,2.5226,2.5226,2.5242,2.5242,2.5242,2.5242,2.5265,2.5266,2.5266,0,0,0,0,0,0,0,0,0,0,0,0,0,2.5196,2.5182,2.5204,2.5215,2.5216,2.5225,2.5226,2.5226,2.5242,2.5242,2.5242,2.5242,2.5265,2.5266,2.5267,2.5267,0,0,2.5269,2.5269,0,0,0,0,0,0,0,0,2.5196,2.5197,2.5213,2.5214,2.5216,2.5231,2.5226,2.524,2.5242,2.5232,2.5242,2.5243,2.5254,2.5256,2.5259,2.5268,2.5269,2.5269,2.5269,2.527,2.527,0,0,0,0,0,0,0,2.5195,2.5196,2.5213,2.5214,2.5215,2.5221,2.5223,2.5229,2.5242,2.5233,2.5234,2.5236,2.5255,2.5258,2.526,2.5269,2.5269,2.5269,2.527,2.527,2.5284,2.5284,0,0,0,0,0,0,2.5191,2.5195,2.5212,2.5213,2.5206,2.5221,2.5223,2.5226,2.5242,2.5244,2.5236,2.5237,2.5257,2.5259,2.5261,2.5265,2.527,2.527,2.5271,2.5284,2.5284,2.5284,0,0,0,0,0,0,2.5191,2.5193,2.5211,2.5205,2.5208,2.5221,2.5224,2.5226,2.523,2.5244,2.5247,2.5237,2.5257,2.526,2.5266,2.5266,2.5271,2.5271,2.5284,2.5284,2.5284,2.5271,0,0,0,0,0,0,2.519,2.5192,2.5191,2.5205,2.5208,2.5215,2.5224,2.5227,2.5231,2.5232,2.5246,2.5248,2.5258,2.5265,2.5267,2.5267,2.5272,2.5284,2.5284,2.5284,2.5271,2.527,2.527,0,0,0,0,0,2.5189,2.5186,2.5191,2.5193,2.5207,2.5215,2.5217,2.5227,2.5231,2.5231,2.5241,2.5248,2.5265,2.5265,2.5268,2.5268,2.5284,2.5284,2.5284,2.5272,2.5271,2.527,0,0,0,0,0,0,2.5172,2.5188,2.5194,2.5194,2.5203,2.5217,2.5217,2.5225,2.5232,2.5233,2.5247,2.525,2.5255,2.5262,2.5262,2.5271,2.5276,2.5276,2.5266,2.5265,2.5264,2.5263,2.5272,0,0,0,0,0,2.5168,2.5173,2.5187,2.5186,2.5191,2.5203,2.5207,2.5215,2.5224,2.5228,2.5238,2.5248,2.5256,2.5261,2.5269,2.5273,2.5278,2.5275,2.5274,2.5273,2.5273,2.5279,2.5279,2.5283,2.5283,2.5283,0,0,2.5161,2.517,2.5172,2.5183,2.5191,2.5197,2.5206,2.5211,2.5216,2.5229,2.5236,2.5244,2.5256,2.5262,2.5265,2.5268,2.5273,2.5272,2.5272,2.5272,2.5279,2.5278,2.5278,2.5283,2.5283,2.5283,0,0,2.515,2.5157,2.5158,2.5167,2.5178,2.5188,2.5188,2.5202,2.5208,2.5215,2.5226,2.5233,2.5246,2.5255,2.5262,2.5259,2.5267,2.5262,2.5256,2.5262,2.5262,2.5262,2.5263,2.5263,2.5262,2.5262,2.5262,0,2.5139,2.5147,2.5159,2.5164,2.517,2.5183,2.5187,2.5194,2.5208,2.5213,2.5216,2.5235,2.5243,2.5253,2.5253,2.5257,2.526,2.526,2.5261,2.5261,2.5261,2.5262,2.5262,2.5261,2.5261,2.5261,2.5261,0,2.5135,2.514,2.5141,2.5155,2.5161,2.5165,2.5179,2.5185,2.5193,2.5202,2.5212,2.5224,2.5236,2.5239,2.5246,2.5251,2.5253,2.5258,2.5263,2.5259,2.5261,2.5262,2.526,2.526,2.526,2.5261,0,0,2.5111,2.5134,2.5134,2.5142,2.5158,2.5163,2.517,2.5182,2.5188,2.5198,2.5205,2.5218,2.5224,2.5231,2.524,2.5245,2.5246,2.5251,2.5251,2.5251,2.5255,2.5252,2.5252,2.5251,2.5252,2.5252,2.5255,0,2.5104,2.5115,2.5128,2.5135,2.5143,2.5157,2.5163,2.5175,2.5185,2.5194,2.5206,2.5215,2.5221,2.5226,2.5232,2.5244,2.5247,2.5244,2.526,2.526,2.5257,2.5252,2.5248,2.525,2.5255,2.5255,2.5256,0,2.5096,2.5107,2.5115,2.5134,2.5138,2.5143,2.5157,2.5165,2.5179,2.5187,2.5197,2.5207,2.5217,2.5222,2.5238,2.5236,2.5243,2.5251,2.5251,2.5253,2.5258,2.5256,2.5251,2.5252,2.5256,2.5256,2.5256,0,2.5081,2.5097,2.5106,2.5112,2.5133,2.5137,2.5146,2.5161,2.5169,2.5182,2.5188,2.5201,2.5209,2.5221,2.5236,2.5237,2.5251,2.5256,2.5259,2.5258,2.5261,2.526,2.5258,2.5264,2.5264,2.5264,2.5264,0,2.5072,2.5077,2.5099,2.5104,2.5112,2.5128,2.5135,2.5146,2.516,2.5169,2.5182,2.5191,2.5209,2.5221,2.5233,2.5246,2.5248,2.5256,2.5259,2.5255,2.5255,2.5261,2.5261,2.5264,2.5264,2.5264,2.5264,0,2.5056,2.507,2.5081,2.5101,2.5106,2.5111,2.5129,2.5136,2.5148,2.516,2.5164,2.5183,2.5197,2.5214,2.5233,2.5242,2.5254,2.5258,2.5249,2.5251,2.5254,2.5254,2.5256,2.5258,2.5261,2.5261,2.5261,0,2.5049,2.5054,2.5075,2.5082,2.5091,2.5102,2.5111,2.5128,2.5137,2.5156,2.5161,2.5177,2.519,2.5213,2.523,2.5246,2.5252,2.5251,2.5254,2.5251,2.5254,2.5254,2.5255,2.525,2.525,2.525,2.525,0,2.5037,2.5045,2.5056,2.5072,2.5082,2.5095,2.5108,2.5113,2.5133,2.5143,2.5158,2.5169,2.5191,2.5207,2.5226,2.5237,2.5248,2.5249,2.5251,2.5247,2.5243,2.5247,2.5248,2.5249,2.5249,2.5249,2.5249,2.5249,2.5026,2.5032,2.5049,2.5063,2.5075,2.5088,2.5097,2.5111,2.5124,2.5143,2.5152,2.5168,2.5187,2.5213,2.5225,2.5239,2.5242,2.5244,2.5245,2.5246,2.5246,2.524,2.5242,2.5242,2.5242,2.5242,2.5243,0,2.5016,2.5029,2.5041,2.506,2.5072,2.5081,2.5098,2.5107,2.5121,2.5137,2.5151,2.517,2.5187,2.5207,2.5225,2.5233,2.5239,2.5238,2.5238,2.5241,2.524,2.5238,2.5233,2.5233,2.5233,2.5233,2.5233,2.5233,2.5012,2.5024,2.5035,2.5054,2.5067,2.5083,2.5092,2.5105,2.5119,2.514,2.5154,2.5167,2.5185,2.5206,2.5223,2.5228,2.5235,2.5233,2.524,2.5239,2.524,2.5241,2.5239,2.5234,2.5234,2.5239,2.5239,2.5239]}]]